Weather History for Shepherd Bay, NU

Change the Weather History Date:

Monday, October 1, 2012

  Actual Average Record
Temperature  
Mean Temperature 30 °F -  
Max Temperature 33 °F - - ()
Min Temperature 28 °F - - ()
Degree Days  
Heating Degree Days 34    
Moisture  
Dew Point -    
Average Humidity    
Maximum Humidity    
Minimum Humidity    
Precipitation  
Precipitation 0.00 in - - ()
Sea Level Pressure  
Sea Level Pressure 29.87 in    
Wind  
Wind Speed 13 mph ()    
Max Wind Speed 23 mph    
Max Gust Speed 23 mph    
Visibility 6.6 miles    
Events Snow    
T = Trace of Precipitation, MM = Missing Value Source: Averaged Metar Reports

Daily Weather History Graph

Daily Weather History Graph

Search for Another Location

Airport:

Trip Planner

Search our weather history database for the weather conditions in past years. The results will help you decide how hot, cold, wet, or windy it might be!

Date:

Astronomy

Oct. 01, 2012 Rise Set
Actual Time 7:29 AM CDT 6:34 PM CDT
Civil Twilight 6:32 AM CDT 7:31 PM CDT
Nautical Twilight 5:23 AM CDT 8:40 PM CDT
Astronomical Twilight 4:04 AM CDT 9:57 PM CDT
Moon 5:44 PM CDT (10/1) 10:19 AM CDT (10/1)
Length of Visible Light 12h 59m
Length of Day
11h 04m
Full, 98% of the Moon is Illuminated
Oct 1
Full
Oct 8
Last Quarter
Oct 15
New
Oct 21
First Quarter
Oct 29
Full

Hourly Weather History & Observations

Time (CDT) Temp. Windchill Dew Point Humidity Pressure Visibility Wind Dir Wind Speed Gust Speed Precip Events Conditions
7:16 AM 33.8 °F 27.0 °F - N/A% 29.86 in 9.0 mi NW 8.1 mph - N/A Snow Light Snow
7:24 AM 33.8 °F 27.7 °F - N/A% 29.85 in 9.0 mi NW 6.9 mph - N/A   Overcast
7:30 AM 33.8 °F 26.4 °F - N/A% 29.86 in 9.0 mi NNW 9.2 mph - N/A   Overcast
7:44 AM 32.0 °F 23.6 °F - N/A% 29.86 in 9.0 mi NNW 10.4 mph - N/A   Mostly Cloudy
7:45 AM 32.0 °F 23.6 °F - N/A% 29.86 in 9.0 mi NNW 10.4 mph - N/A   Overcast
7:46 AM 32.0 °F 23.6 °F - N/A% 29.86 in 9.0 mi NNW 10.4 mph - N/A   Overcast
7:50 AM 32.0 °F 23.6 °F - N/A% 29.86 in 9.0 mi NNW 10.4 mph - N/A   Overcast
7:55 AM 32.0 °F 23.6 °F - N/A% 29.86 in 9.0 mi NNW 10.4 mph - N/A   Overcast
7:59 AM 32.0 °F 23.6 °F - N/A% 29.86 in 9.0 mi NNW 10.4 mph - N/A   Overcast
8:00 AM 32.0 °F 23.6 °F - N/A% 29.87 in 9.0 mi NNW 10.4 mph - N/A   Overcast
9:00 AM 32.0 °F 21.2 °F - N/A% 29.86 in 9.0 mi NNW 16.1 mph - N/A   Overcast
10:00 AM 31 °F - - %  in 9 mi NNW 15.0 mph - -   Overcast
10:00 AM 30.2 °F 20.2 °F - N/A% 29.86 in 9.0 mi NNW 12.7 mph 19.6 mph N/A   Overcast
11:00 AM 32.0 °F 21.6 °F - N/A% 29.86 in 9.0 mi NNW 15.0 mph 20.7 mph N/A   Unknown
11:26 AM 32.0 °F 20.8 °F - N/A% 29.86 in 9.0 mi NNW 17.3 mph - N/A   Scattered Clouds
12:00 PM 32.0 °F 21.6 °F - N/A% 29.85 in 9.0 mi NNW 15.0 mph - N/A   Mostly Cloudy
12:22 PM 32.0 °F 21.6 °F - N/A% 29.85 in 9.0 mi NNW 15.0 mph - N/A   Overcast
12:31 PM 32.0 °F 21.6 °F - N/A% 29.85 in 9.0 mi NW 15.0 mph - N/A   Clear
12:54 PM 32.0 °F 20.5 °F - N/A% 29.85 in 9.0 mi NNW 18.4 mph - N/A Snow Light Snow
12:59 PM 32.0 °F 20.8 °F - N/A% 29.85 in 9.0 mi NNW 17.3 mph - N/A Snow Light Snow
1:00 PM 32 °F - - %  in 9 mi NNW 18.4 mph - -  
1:00 PM 32.0 °F 20.8 °F - N/A% 29.85 in 9.0 mi NNW 17.3 mph - N/A Snow Light Snow
1:09 PM 32.0 °F 20.5 °F - N/A% 29.85 in 9.0 mi NNW 18.4 mph - N/A   Overcast
1:19 PM 32.0 °F 20.1 °F - N/A% 29.85 in 9.0 mi North 19.6 mph - N/A   Mostly Cloudy
1:29 PM 32.0 °F 21.2 °F - N/A% 29.85 in 9.0 mi North 16.1 mph - N/A   Scattered Clouds
1:46 PM 32.0 °F 19.8 °F - N/A% 29.86 in 9.0 mi North 20.7 mph - N/A Snow Light Snow
1:47 PM 32.0 °F 20.1 °F - N/A% 29.86 in 9.0 mi North 19.6 mph - N/A   Scattered Clouds
1:55 PM 32.0 °F 22.1 °F - N/A% 29.86 in 9.0 mi North 13.8 mph 21.9 mph N/A   Mostly Cloudy
1:59 PM 32.0 °F 21.6 °F - N/A% 29.85 in 9.0 mi North 15.0 mph - N/A   Mostly Cloudy
2:00 PM 32.0 °F 20.8 °F - N/A% 29.85 in 9.0 mi North 17.3 mph - N/A   Mostly Cloudy
2:03 PM 32.0 °F 21.6 °F - N/A% 29.85 in 9.0 mi North 15.0 mph - N/A Snow Light Snow
2:11 PM 30.2 °F 18.5 °F - N/A% 29.86 in 3.0 mi North 17.3 mph - N/A Snow Light Snow
2:12 PM 30.2 °F 18.9 °F - N/A% 29.86 in 2.8 mi North 16.1 mph 21.9 mph N/A Snow Light Snow
2:16 PM 30.2 °F 19.3 °F - N/A% 29.86 in 2.5 mi North 15.0 mph 21.9 mph N/A Snow Light Snow
2:21 PM 32.0 °F 21.6 °F - N/A% 29.86 in 3.0 mi North 15.0 mph - N/A Snow Light Snow
2:27 PM 32.0 °F 21.6 °F - N/A% 29.86 in 9.0 mi North 15.0 mph - N/A   Overcast
2:43 PM 32.0 °F 20.8 °F - N/A% 29.86 in 9.0 mi North 17.3 mph - N/A Snow Light Snow
2:55 PM 32.0 °F 21.6 °F - N/A% 29.86 in 9.0 mi NNE 15.0 mph 20.7 mph N/A Snow Light Snow
2:56 PM 32.0 °F 21.2 °F - N/A% 29.86 in 9.0 mi NNE 16.1 mph - N/A   Overcast
3:00 PM 32.0 °F 21.2 °F - N/A% 29.86 in 9.0 mi NNE 16.1 mph - N/A   Overcast
3:04 PM 30.2 °F 19.3 °F - N/A% 29.86 in 9.0 mi North 15.0 mph - N/A   Overcast
3:16 PM 30.2 °F 19.8 °F - N/A% 29.86 in 9.0 mi North 13.8 mph - N/A   Mostly Cloudy
3:30 PM 32.0 °F 21.2 °F - N/A% 29.86 in 9.0 mi North 16.1 mph - N/A   Scattered Clouds
3:35 PM 30.2 °F 16.8 °F - N/A% 29.87 in 7.0 mi North 23.0 mph - N/A Snow Light Snow
3:38 PM 30.2 °F 17.8 °F - N/A% 29.87 in 3.0 mi North 19.6 mph - N/A Snow Light Snow
3:39 PM 30.2 °F 17.8 °F - N/A% 29.87 in 2.5 mi NNE 19.6 mph - N/A Snow Light Snow
3:51 PM 30.2 °F 19.8 °F - N/A% 29.87 in 3.0 mi North 13.8 mph - N/A   Unknown
3:54 PM 30.2 °F 19.3 °F - N/A% 29.87 in 9.0 mi North 15.0 mph - N/A   Unknown
4:00 PM 31 °F - - %  in 9 mi North 13.8 mph - -  
4:00 PM 30.2 °F 19.8 °F - N/A% 29.87 in 9.0 mi North 13.8 mph - N/A   Unknown
4:26 PM 32.0 °F 22.1 °F - N/A% 29.87 in 9.0 mi North 13.8 mph - N/A   Partly Cloudy
5:00 PM 32.0 °F 22.1 °F - N/A% 29.88 in 9.0 mi North 13.8 mph 19.6 mph N/A   Clear
5:32 PM 32.0 °F 23.0 °F - N/A% 29.89 in 9.0 mi North 11.5 mph - N/A   Mostly Cloudy
6:00 PM 30.2 °F 18.9 °F - N/A% 29.89 in 9.0 mi North 16.1 mph - N/A   Overcast
6:15 PM 30.2 °F 17.4 °F - N/A% 29.89 in 4.0 mi North 20.7 mph - N/A Snow Light Snow
6:16 PM 30.2 °F 17.4 °F - N/A% 29.89 in 2.2 mi North 20.7 mph - N/A Snow Light Snow
6:18 PM 30.2 °F 18.9 °F - N/A% 29.89 in 1.4 mi North 16.1 mph 23.0 mph N/A Snow Light Snow
6:21 PM 30.2 °F 18.5 °F - N/A% 29.89 in 1.1 mi North 17.3 mph 23.0 mph N/A Snow Light Snow
6:24 PM 30.2 °F 19.3 °F - N/A% 29.89 in 1.1 mi North 15.0 mph 21.9 mph N/A Snow Light Snow
6:25 PM 30.2 °F 18.5 °F - N/A% 29.89 in 1.2 mi North 17.3 mph - N/A Snow Light Snow
6:28 PM 30.2 °F 18.5 °F - N/A% 29.89 in 3.0 mi North 17.3 mph - N/A Snow Light Snow
6:30 PM 30.2 °F 18.1 °F - N/A% 29.90 in 3.0 mi NNE 18.4 mph - N/A Snow Light Snow
6:31 PM 30.2 °F 18.5 °F - N/A% 29.90 in 2.0 mi NNE 17.3 mph - N/A Snow Light Snow
6:32 PM 30.2 °F 18.5 °F - N/A% 29.90 in 1.4 mi NNE 17.3 mph - N/A Snow Light Snow
6:34 PM 30.2 °F 18.1 °F - N/A% 29.90 in 0.8 mi NNE 18.4 mph - N/A Snow Light Snow
6:35 PM 30.2 °F 18.1 °F - N/A% 29.90 in 0.6 mi NNE 18.4 mph - N/A Snow Light Snow
6:41 PM 30.2 °F 18.9 °F - N/A% 29.90 in 0.6 mi North 16.1 mph - N/A Snow Light Snow
6:42 PM 30.2 °F 18.9 °F - N/A% 29.90 in 0.6 mi NNE 16.1 mph - N/A Snow Light Snow
6:44 PM 30.2 °F 18.5 °F - N/A% 29.90 in 1.1 mi NNE 17.3 mph - N/A Snow Light Snow
6:45 PM 30.2 °F 18.5 °F - N/A% 29.90 in 1.4 mi NNE 17.3 mph - N/A Snow Light Snow
6:51 PM 30.2 °F 18.1 °F - N/A% 29.90 in 1.4 mi NNE 18.4 mph - N/A   Unknown
6:54 PM 30.2 °F 18.5 °F - N/A% 29.90 in 2.4 mi NNE 17.3 mph - N/A   Unknown
6:59 PM 30.2 °F 18.9 °F - N/A% 29.90 in 4.0 mi NNE 16.1 mph - N/A   Overcast
7:00 PM 30 °F - - %  in 5 mi NNE 17.3 mph - -   Overcast
7:00 PM 30.2 °F 18.5 °F - N/A% 29.90 in 5.0 mi NNE 17.3 mph - N/A   Overcast
8:35 PM 30.2 °F 18.9 °F - N/A% 29.92 in 9.0 mi NNW 16.1 mph - N/A   Overcast
8:59 PM 30.2 °F 18.1 °F - N/A% 29.91 in 9.0 mi North 18.4 mph - N/A   Mostly Cloudy
9:00 PM 30.2 °F 18.5 °F - N/A% 29.93 in 9.0 mi North 17.3 mph 23.0 mph N/A   Mostly Cloudy
10:00 PM 29 °F - - % 29.93 in 9 mi NNW 17.3 mph - -  
10:00 PM 28.4 °F 16.2 °F - N/A% 29.93 in 9.0 mi NNW 17.3 mph - N/A   Clear
11:00 PM 28.4 °F 17.0 °F - N/A% 29.93 in 9.0 mi NNW 15.0 mph - N/A   Clear